• In United Kingdom
  • List of Countries
  • For 7 days
  • Water Temperature
  • Satellite Maps
  • Weather Map
  • Weather Widgets
  • user-avatar
    Login

    Hourly Weather Santiago de Querétaro

    Today, 22 September, Friday

    Time Temperature Precipitation Wind Pressure Humidity
    00:00 +18°C° 0.1 mm 2 mps 606 mmHg 90%
    01:00 +18°C° 0.1 mm 2 mps 606 mmHg 90%
    02:00 +18°C° 0.1 mm 2 mps 606 mmHg 91%
    03:00 +17°C° 0.1 mm 2 mps 606 mmHg 91%
    04:00 +17°C° 0.1 mm 2 mps 606 mmHg 90%
    05:00 +17°C° 0.1 mm 2 mps 606 mmHg 90%
    06:00 +18°C° 0 mm 2 mps 606 mmHg 85%
    07:00 +19°C° 0 mm 2 mps 607 mmHg 80%
    08:00 +21°C° 0 mm 2 mps 608 mmHg 74%
    09:00 +23°C° 0.1 mm 2 mps 608 mmHg 69%
    10:00 +24°C° 0.1 mm 3 mps 608 mmHg 64%
    11:00 +25°C° 0.1 mm 3 mps 608 mmHg 59%
    12:00 +26°C° 0.6 mm 3 mps 607 mmHg 58%
    13:00 +26°C° 0.6 mm 4 mps 607 mmHg 58%
    14:00 +26°C° 0.6 mm 4 mps 606 mmHg 57%
    15:00 +25°C° 1.4 mm 4 mps 606 mmHg 62%
    16:00 +24°C° 1.4 mm 3 mps 606 mmHg 67%
    17:00 +22°C° 1.4 mm 3 mps 605 mmHg 73%
    18:00 +21°C° 0.7 mm 3 mps 605 mmHg 78%
    19:00 +19°C° 0.7 mm 2 mps 605 mmHg 82%
    20:00 +18°C° 0.7 mm 2 mps 605 mmHg 87%
    21:00 +18°C° 0.8 mm 2 mps 606 mmHg 89%
    22:00 +19°C° 0.8 mm 1 mps 606 mmHg 90%
    23:00 +19°C° 0.8 mm 1 mps 606 mmHg 91%

    Tomorrow, 23 September, Saturday

    Time Temperature Precipitation Wind Pressure Humidity
    00:00 +18°C° 0.1 mm 1 mps 605 mmHg 92%
    01:00 +18°C° 0.1 mm 1 mps 605 mmHg 92%
    02:00 +18°C° 0.1 mm 1 mps 605 mmHg 92%
    03:00 +18°C° 0 mm 1 mps 605 mmHg 92%
    04:00 +16°C° 0 mm 1 mps 605 mmHg 92%
    05:00 +16°C° 0 mm 1 mps 604 mmHg 92%
    06:00 +18°C° 0 mm 1 mps 605 mmHg 86%
    07:00 +19°C° 0 mm 2 mps 606 mmHg 80%
    08:00 +20°C° 0 mm 2 mps 607 mmHg 74%
    09:00 +21°C° 0 mm 2 mps 607 mmHg 68%
    10:00 +24°C° 0 mm 2 mps 607 mmHg 62%
    11:00 +25°C° 0 mm 2 mps 608 mmHg 56%
    12:00 +25°C° 0.7 mm 2 mps 607 mmHg 56%
    13:00 +25°C° 0.7 mm 2 mps 606 mmHg 57%
    14:00 +26°C° 0.7 mm 2 mps 605 mmHg 57%
    15:00 +25°C° 1.3 mm 2 mps 605 mmHg 62%
    16:00 +24°C° 1.3 mm 2 mps 605 mmHg 67%
    17:00 +23°C° 1.3 mm 2 mps 605 mmHg 72%
    18:00 +21°C° 1.5 mm 2 mps 605 mmHg 77%
    19:00 +19°C° 1.5 mm 2 mps 605 mmHg 82%
    20:00 +18°C° 1.5 mm 2 mps 605 mmHg 87%
    21:00 +19°C° 0.6 mm 1 mps 605 mmHg 88%
    22:00 +18°C° 0.6 mm 1 mps 605 mmHg 89%
    23:00 +18°C° 0.6 mm 1 mps 605 mmHg 90%

    Day after tomorrow, 24 September, Sunday

    Time Temperature Precipitation Wind Pressure Humidity
    00:00 +18°C° 0 mm 1 mps 605 mmHg 90%
    01:00 +18°C° 0 mm 1 mps 605 mmHg 91%
    02:00 +15°C° 0 mm 0 mps 604 mmHg 91%
    03:00 +16°C° 0 mm 1 mps 604 mmHg 91%
    04:00 +16°C° 0 mm 1 mps 604 mmHg 91%
    05:00 +16°C° 0 mm 1 mps 604 mmHg 91%
    06:00 +18°C° 0 mm 1 mps 605 mmHg 86%
    07:00 +20°C° 0 mm 1 mps 606 mmHg 81%
    08:00 +21°C° 0 mm 1 mps 607 mmHg 77%
    09:00 +22°C° 0 mm 1 mps 607 mmHg 70%
    10:00 +24°C° 0 mm 1 mps 607 mmHg 63%
    11:00 +26°C° 0 mm 1 mps 607 mmHg 56%
    12:00 +26°C° 0.5 mm 1 mps 606 mmHg 56%
    13:00 +26°C° 0.5 mm 1 mps 606 mmHg 55%
    14:00 +26°C° 0.5 mm 2 mps 605 mmHg 55%
    15:00 +25°C° 1 mm 2 mps 605 mmHg 60%
    16:00 +24°C° 1 mm 2 mps 604 mmHg 65%
    17:00 +24°C° 1 mm 2 mps 604 mmHg 70%
    18:00 +22°C° 1.1 mm 1 mps 604 mmHg 75%
    19:00 +21°C° 1.1 mm 1 mps 605 mmHg 80%
    20:00 +20°C° 1.1 mm 1 mps 605 mmHg 85%
    21:00 +20°C° 1.1 mm 1 mps 605 mmHg 86%
    22:00 +19°C° 1.1 mm 1 mps 605 mmHg 86%
    23:00 +19°C° 1.1 mm 1 mps 605 mmHg 87%

    25 September, Monday

    Time Temperature Precipitation Wind Pressure Humidity
    00:00 +19°C° 0.5 mm 1 mps 605 mmHg 88%
    01:00 +19°C° 0.5 mm 1 mps 604 mmHg 89%
    02:00 +18°C° 0.5 mm 1 mps 604 mmHg 90%
    03:00 +18°C° 0 mm 1 mps 604 mmHg 90%
    04:00 +18°C° 0 mm 1 mps 604 mmHg 91%
    05:00 +15°C° 0 mm 0 mps 604 mmHg 91%
    06:00 +17°C° 0 mm 0 mps 605 mmHg 86%
    07:00 +20°C° 0 mm 1 mps 605 mmHg 82%
    08:00 +21°C° 0 mm 1 mps 606 mmHg 77%
    09:00 +23°C° 0 mm 1 mps 606 mmHg 70%
    10:00 +24°C° 0 mm 1 mps 606 mmHg 63%
    11:00 +24°C° 0 mm 0 mps 607 mmHg 56%
    12:00 +26°C° 0.3 mm 1 mps 606 mmHg 55%
    13:00 +27°C° 0.3 mm 1 mps 605 mmHg 54%
    14:00 +27°C° 0.3 mm 1 mps 605 mmHg 53%
    15:00 +26°C° 0.6 mm 1 mps 604 mmHg 57%
    16:00 +25°C° 0.6 mm 1 mps 604 mmHg 62%
    17:00 +24°C° 0.6 mm 2 mps 604 mmHg 66%
    18:00 +23°C° 0.7 mm 1 mps 604 mmHg 72%
    19:00 +22°C° 0.7 mm 1 mps 604 mmHg 77%
    20:00 +20°C° 0.7 mm 1 mps 604 mmHg 83%
    21:00 +20°C° 1.4 mm 1 mps 604 mmHg 85%
    22:00 +20°C° 1.4 mm 1 mps 604 mmHg 86%
    23:00 +19°C° 1.4 mm 1 mps 604 mmHg 88%

    26 September, Tuesday

    Time Temperature Precipitation Wind Pressure Humidity
    00:00 +19°C° 0.3 mm 1 mps 604 mmHg 89%
    01:00 +18°C° 0.3 mm 1 mps 604 mmHg 90%
    02:00 +18°C° 0.3 mm 1 mps 603 mmHg 91%
    03:00 +18°C° 0 mm 1 mps 603 mmHg 92%
    04:00 +16°C° 0 mm 0 mps 603 mmHg 92%
    05:00 +15°C° 0 mm 0 mps 603 mmHg 92%
    06:00 +19°C° 0 mm 1 mps 604 mmHg 88%
    07:00 +20°C° 0 mm 1 mps 605 mmHg 84%
    08:00 +21°C° 0 mm 1 mps 606 mmHg 80%
    09:00 +22°C° 0 mm 1 mps 606 mmHg 75%
    10:00 +23°C° 0 mm 1 mps 606 mmHg 70%
    11:00 +24°C° 0 mm 2 mps 606 mmHg 65%
    12:00 +25°C° 0.1 mm 2 mps 605 mmHg 62%
    13:00 +25°C° 0.1 mm 2 mps 605 mmHg 60%
    14:00 +26°C° 0.1 mm 3 mps 605 mmHg 57%
    15:00 +25°C° 0.4 mm 3 mps 605 mmHg 61%
    16:00 +24°C° 0.4 mm 3 mps 605 mmHg 65%
    17:00 +22°C° 0.4 mm 3 mps 604 mmHg 69%
    18:00 +21°C° 0.2 mm 2 mps 605 mmHg 74%
    19:00 +20°C° 0.2 mm 2 mps 605 mmHg 79%
    20:00 +19°C° 0.2 mm 2 mps 605 mmHg 83%
    21:00 +18°C° 0.3 mm 2 mps 605 mmHg 86%
    22:00 +19°C° 0.3 mm 1 mps 605 mmHg 88%
    23:00 +19°C° 0.3 mm 1 mps 604 mmHg 90%

    27 September, Wednesday

    Time Temperature Precipitation Wind Pressure Humidity
    00:00 +18°C° 0.2 mm 1 mps 604 mmHg 91%
    01:00 +18°C° 0.2 mm 1 mps 604 mmHg 91%
    02:00 +18°C° 0.2 mm 1 mps 604 mmHg 91%
    03:00 +18°C° 0 mm 1 mps 604 mmHg 92%
    04:00 +18°C° 0 mm 1 mps 604 mmHg 92%
    05:00 +16°C° 0 mm 1 mps 604 mmHg 92%
    06:00 +19°C° 0 mm 1 mps 604 mmHg 87%
    07:00 +20°C° 0 mm 1 mps 605 mmHg 82%
    08:00 +21°C° 0 mm 1 mps 606 mmHg 78%
    09:00 +21°C° 0 mm 2 mps 606 mmHg 72%
    10:00 +23°C° 0 mm 2 mps 606 mmHg 67%
    11:00 +24°C° 0 mm 3 mps 606 mmHg 62%
    12:00 +24°C° 0.1 mm 3 mps 605 mmHg 61%
    13:00 +25°C° 0.1 mm 4 mps 605 mmHg 60%
    14:00 +25°C° 0.1 mm 4 mps 604 mmHg 59%
    15:00 +23°C° 0.1 mm 4 mps 604 mmHg 63%
    16:00 +22°C° 0.1 mm 4 mps 604 mmHg 66%
    17:00 +21°C° 0.1 mm 3 mps 604 mmHg 70%
    18:00 +20°C° 0 mm 3 mps 604 mmHg 75%
    19:00 +19°C° 0 mm 3 mps 604 mmHg 79%
    20:00 +18°C° 0 mm 2 mps 605 mmHg 83%
    21:00 +18°C° 0.1 mm 2 mps 605 mmHg 84%
    22:00 +18°C° 0.1 mm 2 mps 604 mmHg 86%
    23:00 +18°C° 0.1 mm 2 mps 604 mmHg 88%
    Show more